This is the latest recevied weather packets stored in our database for station/object DG4DAZ-6. If no packets are shown the sender has not sent any weather packets the latest 10 day(s).
| Time | Temp. | Humidity | Pressure | Rain* | Wind** | Luminosity | Snow |
|---|---|---|---|---|---|---|---|
| 1777032722 | 15.56° C | 48% | 1021.9 hPa | 0 mm | - | 751 W/m² | - |
| 1777032121 | 15° C | 53% | 1022 hPa | 0 mm | - | 765 W/m² | - |
| 1777031522 | 15° C | 50% | 1021.9 hPa | 0 mm | - | 752 W/m² | - |
| 1777030922 | 15° C | 50% | 1022.1 hPa | 0 mm | - | 766 W/m² | - |
| 1777030322 | 14.44° C | 53% | 1022.1 hPa | 0 mm | - | 757 W/m² | - |
| 1777029721 | 14.44° C | 50% | 1022.1 hPa | 0 mm | - | 770 W/m² | - |
| 1777029123 | 13.89° C | 54% | 1022.1 hPa | 0 mm | - | 715 W/m² | - |
| 1777028522 | 13.33° C | 53% | 1022.2 hPa | 0 mm | - | 336 W/m² | - |
| 1777027923 | 13.33° C | 58% | 1022.2 hPa | 0 mm | - | 642 W/m² | - |
| 1777027322 | 12.78° C | 59% | 1022.3 hPa | 0 mm | - | 580 W/m² | - |
| 1777026722 | 12.22° C | 59% | 1022.4 hPa | 0 mm | - | 650 W/m² | - |
| 1777026121 | 12.22° C | 62% | 1022.5 hPa | 0 mm | - | 736 W/m² | - |
| 1777025523 | 11.11° C | 63% | 1022.4 hPa | 0 mm | - | 689 W/m² | - |
| 1777024921 | 11.11° C | 64% | 1022.5 hPa | 0 mm | - | 677 W/m² | - |
| 1777024322 | 10.56° C | 64% | 1022.7 hPa | 0 mm | - | 729 W/m² | - |
| 1777023722 | 10.56° C | 65% | 1022.6 hPa | 0 mm | - | 668 W/m² | - |
| 1777023121 | 10.56° C | 68% | 1022.6 hPa | 0 mm | - | 682 W/m² | - |
| 1777022523 | 10° C | 69% | 1022.6 hPa | 0 mm | - | 633 W/m² | - |
| 1777021922 | 10° C | 74% | 1022.7 hPa | 0 mm | - | 651 W/m² | - |
| 1777021322 | 9.44° C | 77% | 1022.6 hPa | 0 mm | - | 622 W/m² | - |
| 1777020721 | 8.89° C | 77% | 1022.6 hPa | 0 mm | - | 561 W/m² | - |
| 1777020123 | 8.89° C | 78% | 1022.6 hPa | 0 mm | - | 569 W/m² | - |
| 1777019522 | 8.33° C | 79% | 1022.6 hPa | 0 mm | - | 523 W/m² | - |
| 1777018922 | 8.33° C | 81% | 1022.6 hPa | 0 mm | - | 579 W/m² | - |
| 1777018323 | 7.22° C | 82% | 1022.6 hPa | 0 mm | - | 582 W/m² | - |
* Rain latest hour (hover to see other rain measurements)
** Current wind speed in m/s (hover to see current wind gust speed)